�N����,����,�~����,�C��,���x,�C��,����,���ϕ���,�ő�u�ԕ���,�ő厞����,���˗�,�I�_���x,�n�����x,�ő啗���N��,DTYPE
"16/06/13","00:10",1.6,20.7,91.8,997.0,96.2,0.8,2.2,139.5,0.00,19.4,21.8,"00:04:16",1
"16/06/13","00:20",1.6,20.6,92.1,996.5,110.2,0.7,1.9,95.0,0.00,19.3,21.9,"00:16:24",1
"16/06/13","00:30",0.8,20.5,92.3,996.0,83.3,0.8,2.5,117.1,0.00,19.2,21.8,"00:29:04",1
"16/06/13","00:40",0.0,20.5,92.3,995.3,97.9,1.1,2.2,111.0,0.00,19.2,21.9,"00:35:38",1
"16/06/13","00:50",0.0,20.6,92.0,995.1,94.5,1.0,2.8,117.1,0.00,19.3,21.7,"00:46:56",1
"16/06/13","01:00",0.0,20.7,91.3,994.8,61.1,0.8,3.2,69.5,0.00,19.3,21.9,"00:58:16",1
"16/06/13","01:10",0.0,21.0,90.1,994.8,120.2,1.1,2.8,311.5,0.00,19.4,22.1,"01:00:16",1
"16/06/13","01:20",0.0,21.2,89.0,994.4,158.8,1.5,3.3,175.3,0.00,19.4,21.8,"01:18:24",1
"16/06/13","01:30",0.0,21.3,88.4,994.4,135.2,1.2,3.4,155.2,0.00,19.3,21.8,"01:22:08",1
"16/06/13","01:40",0.4,21.3,88.1,994.4,116.3,0.7,2.9,125.0,0.00,19.3,21.7,"01:30:24",1
"16/06/13","01:50",0.0,21.1,89.3,993.9,329.6,0.7,1.1,342.8,0.00,19.3,21.7,"01:41:36",1
"16/06/13","02:00",1.0,20.8,90.6,994.1,324.5,0.3,1.1,340.4,0.00,19.2,21.8,"01:59:44",1
"16/06/13","02:10",2.0,20.6,91.5,993.9,289.3,0.7,1.7,233.7,0.00,19.2,21.6,"02:05:12",1
"16/06/13","02:20",1.0,20.5,92.2,994.1,292.1,0.7,2.5,347.0,0.00,19.2,21.8,"02:11:12",1
"16/06/13","02:30",0.4,20.4,92.8,993.9,324.5,0.3,0.9,0.9,0.00,19.2,21.8,"02:28:00",1
"16/06/13","02:40",1.8,20.4,93.2,993.7,273.3,0.5,0.8,237.6,0.00,19.3,21.8,"02:32:40",1
"16/06/13","02:50",1.6,20.3,93.5,993.7,321.0,0.6,1.3,347.9,0.00,19.3,21.8,"02:47:12",1
"16/06/13","03:00",0.8,20.3,93.8,993.2,315.2,0.2,1.0,342.5,0.00,19.3,21.6,"02:59:20",1
"16/06/13","03:10",0.6,20.2,94.0,993.2,307.7,0.3,0.8,318.3,0.00,19.2,21.7,"03:04:48",1
"16/06/13","03:20",0.8,20.2,94.3,993.2,276.3,0.5,0.6,263.3,0.00,19.3,21.7,"03:11:04",1
"16/06/13","03:30",0.8,20.2,94.5,993.0,323.2,0.6,1.4,344.3,0.00,19.3,21.4,"03:27:28",1
"16/06/13","03:40",1.2,20.1,94.6,993.2,283.8,0.6,2.1,340.1,0.00,19.2,21.5,"03:36:24",1
"16/06/13","03:50",1.4,20.1,94.7,993.2,292.1,0.5,1.1,358.8,0.00,19.3,21.7,"03:40:32",1
"16/06/13","04:00",1.4,20.1,94.8,993.2,280.0,0.3,1.0,339.8,0.00,19.3,21.5,"03:59:52",1
"16/06/13","04:10",1.6,20.1,94.9,993.2,291.9,0.5,0.9,335.3,0.00,19.3,21.4,"04:09:12",1
"16/06/13","04:20",1.2,20.0,95.0,993.2,274.8,0.5,1.1,318.7,0.00,19.2,21.6,"04:10:24",1
"16/06/13","04:30",1.8,20.0,95.1,993.2,269.9,0.6,1.2,237.0,0.00,19.2,21.3,"04:20:32",1
"16/06/13","04:40",2.0,20.0,95.2,993.2,304.6,0.5,1.1,319.8,0.00,19.2,21.2,"04:38:48",1
"16/06/13","04:50",1.8,20.0,95.3,992.7,297.9,0.6,1.0,326.9,0.00,19.3,21.2,"04:47:20",1
"16/06/13","05:00",1.0,20.0,95.4,993.0,281.3,0.3,1.1,254.8,0.00,19.3,21.5,"04:55:52",1
"16/06/13","05:10",0.2,20.0,95.4,993.0,271.8,0.2,0.6,243.9,0.00,19.3,21.4,"05:02:08",1
"16/06/13","05:20",0.4,20.1,95.5,993.2,260.8,0.5,1.2,234.3,0.00,19.4,21.4,"05:14:24",1
"16/06/13","05:30",0.2,20.1,95.5,993.0,296.1,0.3,0.8,327.8,0.00,19.4,21.3,"05:21:36",1
"16/06/13","05:40",0.4,20.2,95.6,993.2,280.0,0.5,0.9,331.5,0.00,19.5,21.3,"05:38:08",1
"16/06/13","05:50",0.2,20.2,95.6,993.2,300.2,0.5,0.9,304.0,0.00,19.5,21.2,"05:41:52",1
"16/06/13","06:00",0.0,20.3,95.7,993.0,287.6,0.3,0.9,340.1,0.00,19.6,21.2,"05:54:48",1
"16/06/13","06:10",0.0,20.3,95.7,993.2,266.5,0.3,0.9,239.5,0.00,19.6,21.4,"06:05:28",1
"16/06/13","06:20",0.2,20.5,95.7,993.2,258.8,0.3,0.9,237.2,0.01,19.8,21.2,"06:13:20",1
"16/06/13","06:30",0.0,20.7,95.7,992.7,257.0,0.2,1.2,239.0,0.02,20.0,21.6,"06:24:16",1
"16/06/13","06:40",0.0,20.7,95.5,993.4,294.0,0.2,0.5,290.4,0.00,20.0,21.4,"06:34:16",1
"16/06/13","06:50",0.0,20.6,95.5,993.2,294.1,0.3,1.1,233.4,0.00,19.9,21.5,"06:45:20",1
"16/06/13","07:00",0.2,20.7,95.4,993.2,294.7,0.3,1.0,336.8,0.01,20.0,21.5,"06:50:08",1
"16/06/13","07:10",0.6,20.7,95.4,993.9,295.0,0.5,1.4,356.3,0.01,20.0,21.4,"07:04:08",1
"16/06/13","07:20",0.4,20.7,95.4,994.1,313.1,0.5,1.3,332.8,0.02,20.0,21.5,"07:10:32",1
"16/06/13","07:30",0.4,20.8,95.3,993.9,308.9,0.2,0.9,316.9,0.02,20.1,21.5,"07:20:24",1
"16/06/13","07:40",0.2,20.9,94.7,994.1,281.2,0.5,1.4,348.9,0.04,20.1,21.5,"07:38:24",1
"16/06/13","07:50",0.0,20.9,94.7,993.7,307.3,0.5,1.1,354.6,0.03,20.1,21.5,"07:46:48",1
"16/06/13","08:00",0.0,20.9,94.4,993.9,289.3,0.5,1.6,224.7,0.04,20.0,21.6,"07:57:28",1
"16/06/13","08:10",0.0,21.0,94.2,993.9,311.7,0.5,1.0,311.3,0.04,20.1,21.6,"08:02:16",1
"16/06/13","08:20",0.0,21.4,94.2,994.1,308.1,0.2,1.4,16.5,0.07,20.5,21.7,"08:16:08",1
"16/06/13","08:30",0.0,21.6,93.5,994.4,335.4,0.3,1.1,358.9,0.08,20.5,21.7,"08:21:12",1
"16/06/13","08:40",0.0,21.8,92.6,993.9,322.2,0.2,1.1,307.2,0.09,20.6,21.8,"08:34:00",1
"16/06/13","08:50",0.0,22.0,91.8,993.9,304.4,0.2,1.1,227.7,0.10,20.6,21.8,"08:49:52",1
"16/06/13","09:00",0.0,22.1,91.0,993.7,255.7,0.3,1.0,248.7,0.13,20.6,22.0,"08:50:24",1
"16/06/13","09:10",0.0,22.3,90.5,993.7,226.6,0.6,1.6,210.0,0.13,20.7,22.2,"09:05:04",1
"16/06/13","09:20",0.0,22.4,90.0,994.1,218.5,1.0,1.9,233.8,0.13,20.7,22.0,"09:14:56",1
"16/06/13","09:30",0.0,22.5,88.7,994.4,187.2,0.5,1.3,234.7,0.12,20.6,22.2,"09:21:44",1
"16/06/13","09:40",0.0,23.0,86.7,994.1,219.8,0.2,0.6,239.5,0.17,20.7,22.2,"09:31:28",1
"16/06/13","09:50",0.0,23.5,88.3,993.9,106.9,0.3,1.1,127.0,0.22,21.5,22.5,"09:42:56",1
"16/06/13","10:00",0.0,23.4,85.8,993.7,305.6,0.7,2.4,212.1,0.23,20.9,22.5,"09:59:44",1
"16/06/13","10:10",0.0,23.4,84.8,993.9,193.2,1.0,2.4,218.7,0.20,20.7,22.7,"10:01:28",1
"16/06/13","10:20",0.0,23.4,85.7,994.4,189.5,1.0,2.1,182.8,0.18,20.9,22.9,"10:18:40",1
"16/06/13","10:30",0.0,23.2,85.2,994.1,203.0,0.8,1.8,145.8,0.15,20.6,22.8,"10:24:48",1
"16/06/13","10:40",0.0,23.3,85.1,994.1,194.5,0.7,2.4,229.0,0.15,20.7,22.8,"10:35:36",1
"16/06/13","10:50",0.0,23.8,85.2,994.1,170.9,0.5,1.2,175.9,0.18,21.2,23.0,"10:41:44",1
"16/06/13","11:00",0.0,24.1,82.6,993.7,215.4,0.7,1.8,213.1,0.24,21.0,23.0,"10:56:00",1
"16/06/13","11:10",0.0,24.7,81.8,993.7,82.0,0.3,1.0,117.1,0.27,21.4,23.2,"11:09:28",1
"16/06/13","11:20",0.0,24.7,80.0,993.7,130.3,0.7,1.6,221.5,0.27,21.1,23.3,"11:19:20",1
"16/06/13","11:30",0.0,24.2,82.1,993.9,213.0,1.0,2.5,198.9,0.14,21.0,23.3,"11:27:20",1
"16/06/13","11:40",0.0,24.5,81.3,994.1,328.5,0.7,2.0,204.8,0.08,21.1,23.4,"11:30:24",1
"16/06/13","11:50",0.0,24.4,81.1,994.1,318.3,0.8,1.8,335.8,0.09,21.0,23.5,"11:44:00",1
"16/06/13","12:00",0.0,24.1,82.4,993.7,290.2,0.6,1.9,349.2,0.14,21.0,23.7,"11:57:52",1
"16/06/13","12:10",0.0,24.0,80.4,993.7,315.5,0.8,1.9,315.0,0.10,20.5,23.5,"12:06:08",1
"16/06/13","12:20",0.0,24.2,79.8,993.2,320.7,1.0,1.7,359.7,0.13,20.5,23.6,"12:13:28",1
"16/06/13","12:30",0.0,24.3,79.5,993.2,312.8,0.8,2.4,350.3,0.17,20.6,23.6,"12:26:08",1
"16/06/13","12:40",0.0,24.5,81.6,993.0,314.1,0.8,2.0,347.3,0.20,21.2,23.7,"12:34:08",1
"16/06/13","12:50",0.0,24.5,79.0,993.4,314.0,0.7,2.8,335.7,0.22,20.7,23.7,"12:43:28",1
"16/06/13","13:00",0.0,24.7,78.3,993.2,288.6,0.6,1.6,325.2,0.20,20.7,23.7,"12:50:56",1
"16/06/13","13:10",0.0,24.1,78.9,993.4,308.4,0.8,1.8,330.1,0.13,20.3,23.8,"13:00:02",1
"16/06/13","13:20",0.0,24.5,79.8,993.2,318.6,0.8,2.1,13.1,0.18,20.8,23.8,"13:17:36",1
"16/06/13","13:30",0.0,26.3,73.7,993.2,321.3,0.8,2.5,356.6,0.43,21.3,23.8,"13:26:00",1
"16/06/13","13:40",0.0,25.9,73.3,992.7,296.2,0.7,2.2,233.2,0.33,20.8,24.1,"13:39:20",1
"16/06/13","13:50",0.0,25.1,74.8,993.0,297.9,0.5,1.6,334.8,0.21,20.4,24.2,"13:49:20",1
"16/06/13","14:00",0.0,24.9,77.0,992.7,310.7,0.8,1.9,357.6,0.18,20.6,24.3,"13:57:04",1
"16/06/13","14:10",0.0,25.0,74.9,992.7,314.5,1.0,3.1,334.7,0.24,20.3,24.2,"14:02:32",1
"16/06/13","14:20",0.0,24.9,75.9,992.7,323.6,1.0,1.9,3.2,0.19,20.4,24.4,"14:15:52",1
"16/06/13","14:30",0.0,24.8,76.8,992.7,296.1,0.6,2.0,336.7,0.15,20.5,24.5,"14:20:32",1
"16/06/13","14:40",0.0,25.0,75.1,992.7,311.0,0.6,1.8,353.4,0.16,20.3,24.5,"14:32:32",1
"16/06/13","14:50",0.0,24.7,76.0,992.5,280.7,0.8,2.6,347.8,0.15,20.2,24.3,"14:43:44",1
"16/06/13","15:00",0.0,24.4,77.0,992.5,303.1,0.8,2.1,338.2,0.10,20.1,24.5,"14:56:32",1
"16/06/13","15:10",0.0,24.3,77.6,992.2,293.4,0.7,1.4,343.5,0.11,20.2,24.3,"15:02:00",1
"16/06/13","15:20",0.0,24.5,75.2,992.7,336.6,1.1,3.3,333.3,0.11,19.9,24.4,"15:17:28",1
"16/06/13","15:30",0.0,24.4,76.4,993.0,339.4,1.5,3.6,335.1,0.14,20.0,24.3,"15:23:12",1
"16/06/13","15:40",0.0,24.4,75.6,993.0,347.9,1.6,3.3,5.2,0.16,19.9,24.4,"15:38:00",1
"16/06/13","15:50",0.0,24.2,75.0,992.7,346.2,1.7,3.6,336.5,0.11,19.5,24.3,"15:41:12",1
"16/06/13","16:00",0.0,23.6,76.4,993.2,353.8,2.2,4.8,344.8,0.09,19.2,24.3,"15:52:00",1
"16/06/13","16:10",0.0,23.6,76.9,993.0,343.6,2.3,4.3,348.5,0.11,19.4,24.1,"16:00:40",1
"16/06/13","16:20",0.0,23.8,75.7,992.7,325.0,1.7,4.4,2.8,0.15,19.3,24.1,"16:15:20",1
"16/06/13","16:30",0.0,23.6,76.3,993.0,312.2,1.5,4.1,329.2,0.08,19.2,24.1,"16:20:08",1
"16/06/13","16:40",0.0,23.3,76.9,993.0,319.1,1.6,3.1,333.5,0.07,19.1,23.9,"16:33:44",1
"16/06/13","16:50",0.0,23.4,76.1,993.0,322.4,1.5,3.7,338.1,0.06,19.0,24.2,"16:44:16",1
"16/06/13","17:00",0.0,23.2,76.4,993.2,314.4,1.5,3.3,344.4,0.05,18.9,23.9,"16:51:12",1
"16/06/13","17:10",0.0,23.2,76.9,993.4,319.5,1.5,3.7,330.1,0.05,19.0,23.8,"17:02:32",1
"16/06/13","17:20",0.0,23.2,77.0,993.4,312.0,1.3,3.1,324.0,0.04,19.0,23.7,"17:11:36",1
"16/06/13","17:30",0.0,23.1,76.7,993.9,314.5,1.2,2.4,329.2,0.03,18.8,23.7,"17:24:16",1
"16/06/13","17:40",0.0,22.9,77.4,993.7,313.2,1.2,2.1,330.6,0.03,18.8,23.6,"17:34:56",1
"16/06/13","17:50",0.0,22.8,77.0,993.4,321.9,1.5,3.2,349.8,0.02,18.6,23.3,"17:48:48",1
"16/06/13","18:00",0.0,22.6,78.5,993.4,318.4,1.2,2.6,341.4,0.01,18.7,23.6,"17:58:40",1
"16/06/13","18:10",0.0,22.4,78.2,993.7,319.5,1.2,2.9,318.0,0.00,18.5,23.6,"18:02:16",1
"16/06/13","18:20",0.0,22.3,78.5,994.1,335.3,1.1,2.8,348.8,0.00,18.4,23.3,"18:13:52",1
"16/06/13","18:30",0.0,22.2,78.6,993.9,349.3,1.3,3.1,354.7,0.00,18.3,23.3,"18:29:52",1
"16/06/13","18:40",0.0,22.2,79.5,993.7,349.7,1.6,3.5,341.0,0.00,18.5,23.3,"18:36:40",1
"16/06/13","18:50",0.0,22.2,78.6,993.9,347.2,1.3,2.6,324.8,0.00,18.3,23.2,"18:43:52",1
"16/06/13","19:00",0.0,22.2,79.2,993.9,333.9,1.5,3.5,3.2,0.00,18.5,23.1,"18:51:12",1
"16/06/13","19:10",0.0,22.0,80.4,994.4,269.0,1.1,1.9,240.1,0.00,18.5,23.1,"19:05:20",1
"16/06/13","19:20",0.0,21.8,80.9,994.1,315.8,1.0,2.4,339.3,0.00,18.4,23.1,"19:11:20",1
"16/06/13","19:30",0.0,21.7,80.5,994.6,325.3,1.1,2.1,327.8,0.00,18.2,23.1,"19:26:08",1
"16/06/13","19:40",0.0,21.7,80.8,994.4,301.0,0.7,1.2,330.6,0.00,18.3,23.0,"19:30:08",1
"16/06/13","19:50",0.0,21.6,81.8,994.6,302.2,0.7,1.2,321.6,0.00,18.4,23.0,"19:40:08",1
"16/06/13","20:00",0.0,21.5,82.9,994.6,306.5,0.8,1.4,337.1,0.00,18.5,23.1,"19:50:02",1
"16/06/13","20:10",0.0,21.3,84.0,994.6,322.4,1.2,1.9,351.6,0.00,18.5,22.9,"20:03:44",1
"16/06/13","20:20",0.0,21.3,84.0,994.8,307.1,1.0,1.6,311.8,0.00,18.5,22.7,"20:12:32",1
"16/06/13","20:30",0.0,21.3,84.4,995.1,309.0,1.0,1.8,330.9,0.00,18.6,22.8,"20:22:48",1
"16/06/13","20:40",0.0,21.3,84.4,994.8,307.3,1.1,1.7,330.5,0.00,18.6,22.7,"20:35:44",1
"16/06/13","20:50",0.0,21.3,84.4,995.1,305.2,1.0,1.6,332.5,0.00,18.6,22.7,"20:44:08",1
"16/06/13","21:00",0.0,21.2,84.3,995.3,315.0,1.1,1.8,323.3,0.00,18.5,22.5,"20:58:16",1
"16/06/13","21:10",0.0,21.3,84.4,995.3,319.2,1.0,1.8,333.5,0.00,18.6,22.7,"21:07:52",1
"16/06/13","21:20",0.0,21.3,84.1,996.0,325.0,1.2,1.9,338.9,0.00,18.5,22.4,"21:16:48",1
"16/06/13","21:30",0.0,21.2,84.3,996.0,317.7,1.1,1.9,333.3,0.00,18.5,22.5,"21:22:16",1
"16/06/13","21:40",0.0,21.2,84.6,995.8,319.2,1.2,2.0,335.1,0.00,18.5,22.2,"21:36:16",1
"16/06/13","21:50",0.0,21.2,84.5,996.0,313.6,1.1,1.7,314.0,0.00,18.5,22.4,"21:45:44",1
"16/06/13","22:00",0.0,21.2,84.2,996.0,323.2,1.2,2.1,319.9,0.00,18.5,22.3,"21:54:08",1
"16/06/13","22:10",0.0,21.2,84.3,996.3,314.4,1.2,1.8,335.6,0.00,18.5,22.2,"22:01:52",1
"16/06/13","22:20",0.0,21.1,84.3,996.3,313.5,1.3,2.1,308.9,0.00,18.4,22.3,"22:19:04",1
"16/06/13","22:30",0.0,21.2,84.3,996.3,312.4,1.1,1.7,321.5,0.00,18.5,22.0,"22:24:16",1
"16/06/13","22:40",0.0,21.1,84.3,996.0,317.6,1.2,1.8,329.4,0.00,18.4,22.2,"22:30:24",1
"16/06/13","22:50",0.0,21.1,84.4,996.3,317.6,1.3,1.7,329.3,0.00,18.4,22.2,"22:41:36",1
"16/06/13","23:00",0.0,21.0,84.7,996.3,313.8,1.2,1.9,299.7,0.00,18.4,22.1,"22:56:56",1
"16/06/13","23:10",0.0,20.9,84.9,996.0,320.2,1.5,2.1,339.2,0.00,18.3,22.1,"23:03:28",1
"16/06/13","23:20",0.0,20.9,85.0,995.8,316.3,1.3,1.9,330.1,0.00,18.3,22.0,"23:12:24",1
"16/06/13","23:30",0.0,20.8,85.4,996.0,310.5,1.1,1.7,312.6,0.00,18.3,22.2,"23:27:44",1
"16/06/13","23:40",0.0,20.6,86.1,995.6,308.2,1.1,1.8,354.0,0.00,18.2,22.0,"23:30:02",1
"16/06/13","23:50",0.0,20.5,86.6,995.6,318.7,1.3,2.1,338.4,0.00,18.2,22.1,"23:40:24",1
"16/06/13","24:00",0.0,20.5,86.4,995.6,310.9,1.3,1.8,305.0,0.00,18.2,22.0,"23:50:48",1
